sat.trackr.live / text

‹ back to catalog

2025-234C

NORAD 66055 · 2025-234C

PAYLOAD ACTIVE UNKNOWN

§ Identity

Operator
Country
PRC
Launch date
2025-10-19
Launch site
JSC
Launch vehicle
Mass (kg)
RCS (m²)

External: N2YO · Heavens-Above · Gunter

§ Orbital elements

Epoch: 2026-05-25T04:08:35.289024Z

Period
94.49 min
Inclination
97.4267°
Eccentricity
0.0013500
Mean motion
15.23905144 rev/d
Perigee alt
484.8 km
Apogee alt
503.4 km
Semi-major
6,872.2 km
B*
1.8456e-4
RAAN
213.7773°
Arg perigee
235.0079°
Mean anomaly
124.9891°
Rev number
3,318

§ Raw data

2025-234C1 66055U 25234C   26145.17263066  .00004396  00000+0  18456-3 0  99952 66055  97.4267 213.7773 0013500 235.0079 124.9891 15.23905144 33187

JSON: /api/v1/satellites/66055 · /tle

For live sub-satellite position, see the globe view (requires WebGL).

§ Visibility from observer

Set your observer location to see the next 7 days of passes ≥ 10°. The values pass through the URL so the page stays shareable.

No JS? Fill the form by hand. The geolocation button needs JavaScript.